Date,TemperatureHighF,TemperatureAvgF,TemperatureLowF,DewpointHighF,DewpointAvgF,DewpointLowF,HumidityHigh,HumidityAvg,HumidityLow,PressureMaxIn,PressureMinIn,WindSpeedMaxMPH,WindSpeedAvgMPH,GustSpeedMaxMPH,PrecipitationSumIn
2013-1-1,30.7,26.0,18.0,27.0,18.3,11.6,86,73,58,30.16,30.04,4,0,4,0.00
2013-1-2,25.4,15.5,7.9,14.4,8.5,1.9,84,74,62,30.27,30.15,3,0,4,0.00
2013-1-3,28.8,22.4,11.1,23.1,14.0,2.3,81,70,60,30.26,30.17,7,1,10,0.00
2013-1-4,27.9,23.2,16.9,20.4,15.5,9.1,81,73,62,30.28,30.19,10,2,17,0.00
2013-1-5,35.3,27.8,18.1,29.8,22.1,14.3,91,79,63,30.32,30.08,9,1,10,0.00
2013-1-6,35.8,31.6,26.1,30.6,26.3,20.7,88,81,73,30.32,29.96,7,2,14,0.01
2013-1-7,34.6,28.5,21.4,25.1,22.3,18.3,88,78,65,30.44,30.20,6,0,11,0.00
2013-1-8,40.6,31.3,23.8,27.5,23.9,19.5,84,75,58,30.28,30.18,5,0,6,0.03
2013-1-9,44.3,38.6,28.1,33.4,30.6,24.1,86,73,61,30.50,30.10,11,2,18,0.04
2013-1-10,38.6,31.3,21.4,33.2,26.7,18.9,92,83,70,30.55,30.10,9,2,14,0.08
2013-1-11,57.2,47.8,36.0,53.3,44.2,32.7,96,88,70,30.09,29.78,6,1,12,0.47
2013-1-12,59.9,53.1,48.8,52.0,48.4,44.5,96,84,71,29.94,29.74,5,1,9,0.30
2013-1-13,52.5,38.2,25.4,51.3,36.6,21.2,96,94,84,30.14,29.71,5,1,9,0.66
2013-1-14,24.8,21.3,16.2,20.3,15.3,12.4,85,77,71,30.48,30.15,5,1,9,0.01
2013-1-15,28.2,21.7,12.9,20.1,15.8,9.5,89,78,65,30.46,30.15,6,1,10,0.00
2013-1-16,36.8,28.6,20.5,25.7,19.6,14.5,88,71,40,30.15,29.91,7,1,13,0.00
2013-1-17,38.8,30.8,19.7,29.3,21.1,10.9,90,68,44,30.38,30.03,9,1,12,0.00
2013-1-18,37.6,28.6,19.9,22.4,16.8,11.3,71,61,48,30.48,30.05,9,1,18,0.00
2013-1-19,48.9,42.1,37.2,33.8,27.8,22.1,67,57,49,30.05,29.74,14,3,19,0.00
2013-1-20,43.6,24.3,17.2,32.6,11.0,6.6,68,57,37,30.25,29.75,10,2,19,0.00
2013-1-21,18.9,14.0,7.4,7.4,0.5,-8.0,65,54,39,30.22,30.08,7,2,12,0.00
2013-1-22,12.8,7.9,3.2,-4.0,-5.8,-7.0,62,52,40,30.38,30.22,7,2,10,0.00
2013-1-23,18.4,14.5,7.9,12.6,2.4,-5.0,80,58,42,30.36,30.11,5,1,7,0.00
2013-1-24,20.8,15.1,6.0,13.4,3.5,0.0,82,61,44,30.63,30.14,5,1,14,0.00
2013-1-25,23.9,20.9,17.7,19.5,13.0,6.2,83,72,60,30.49,30.04,6,1,10,0.01
2013-1-26,29.0,24.5,18.8,20.1,16.5,12.1,84,72,53,30.47,30.08,3,0,6,0.01
2013-1-27,32.9,25.1,16.5,30.2,18.9,11.9,90,77,66,30.48,30.12,8,1,11,0.00
2013-1-28,48.9,44.2,32.9,47.8,42.9,30.5,96,95,91,30.11,29.91,7,1,13,0.10
2013-1-29,61.0,54.6,42.9,55.9,52.2,41.8,98,92,82,29.97,29.41,10,2,16,0.08
2013-1-30,64.2,47.7,29.8,58.6,44.7,23.3,96,89,75,29.43,29.18,11,2,20,0.37
2013-1-31,29.8,20.5,12.3,24.5,11.7,2.4,83,69,54,30.03,29.44,10,4,15,0.00
2013-2-1,13.8,10.7,5.6,4.8,0.9,-2.0,70,64,55,30.38,30.04,10,2,13,0.00
2013-2-2,25.1,19.6,12.9,20.0,14.4,4.6,84,80,69,30.29,29.98,5,1,10,0.00
2013-2-3,21.8,17.5,14.9,13.7,11.1,8.2,85,76,66,30.09,29.95,7,1,11,0.00
2013-2-4,24.5,20.9,14.0,21.0,17.3,9.2,89,86,78,30.10,29.86,5,1,9,0.00
2013-2-5,31.0,23.9,12.1,27.4,19.3,9.2,91,83,64,30.00,29.84,5,0,7,0.09
2013-2-6,30.9,27.3,22.2,25.7,17.7,13.9,85,67,54,30.29,30.01,6,1,10,0.03
2013-2-7,37.8,30.3,23.6,31.1,23.7,17.9,91,76,67,30.25,29.79,7,2,10,0.14
2013-2-8,33.7,30.8,21.3,32.1,24.8,16.3,94,79,63,30.36,29.78,11,2,14,0.04
2013-2-9,32.9,24.2,13.1,21.8,17.4,9.4,89,76,60,30.46,30.25,5,1,10,0.00
2013-2-10,47.0,36.2,25.7,45.0,30.0,21.3,93,79,63,30.25,29.67,7,1,9,0.08
2013-2-11,47.9,38.0,31.2,45.4,28.8,20.3,93,70,60,29.98,29.60,16,4,20,0.01
2013-2-12,38.6,31.8,28.7,25.5,22.1,19.8,75,67,57,30.11,29.95,6,1,10,0.00
2013-2-13,28.8,27.1,25.8,21.9,21.2,20.7,82,78,74,29.95,29.84,2,0,3,0.00
2013-2-14,43.3,38.3,33.1,34.9,28.6,21.5,75,68,59,29.95,29.72,11,3,16,0.00
2013-2-15,33.4,28.7,20.8,25.4,18.9,12.4,84,67,48,30.17,29.94,5,1,10,0.00
2013-2-16,25.0,20.4,13.5,18.3,12.2,0.0,85,71,44,30.15,30.06,9,1,11,0.00
2013-2-17,29.1,19.6,11.9,12.4,8.2,3.5,81,63,38,30.25,30.13,4,0,7,0.00
2013-2-18,53.9,36.9,19.2,40.5,24.8,11.4,86,62,50,30.20,29.57,7,2,19,0.09
2013-2-19,44.3,23.7,15.1,41.5,16.9,6.2,90,75,61,30.09,29.47,12,4,19,0.05
2013-2-20,23.5,19.2,14.0,14.7,10.5,6.3,73,69,62,30.33,30.09,7,2,14,0.00
2013-2-21,26.9,23.1,20.6,17.9,14.7,11.7,75,70,64,30.40,30.17,13,3,18,0.00
2013-2-22,34.3,27.9,20.2,33.2,25.8,14.0,96,92,73,30.18,29.89,15,3,22,0.08
2013-2-23,31.5,28.5,25.7,29.4,20.9,18.5,92,73,64,29.98,29.92,5,1,9,0.01
2013-2-24,37.2,28.7,21.6,22.8,19.7,17.6,86,70,54,30.18,29.96,4,1,6,0.02
2013-2-25,40.2,29.4,17.0,26.9,21.9,14.3,92,75,55,30.23,30.03,9,2,12,0.00
2013-2-26,34.1,31.9,29.3,32.8,28.2,22.8,95,86,74,30.03,29.44,14,3,20,0.84
2013-2-27,34.1,32.9,31.0,33.0,31.5,29.2,96,95,93,29.62,29.44,4,1,11,0.29
2013-2-28,37.5,34.0,31.2,32.1,30.7,29.4,94,88,77,29.96,29.60,4,1,7,0.13
2013-3-1,32.4,29.6,25.6,30.3,23.2,16.8,92,77,67,30.13,29.95,6,1,7,0.00
2013-3-2,31.3,26.7,24.4,19.4,16.7,14.0,79,66,55,30.12,30.07,6,1,7,0.00
2013-3-3,32.8,27.0,20.5,17.1,14.8,12.1,73,60,46,30.11,30.04,7,1,11,0.00
2013-3-4,35.0,26.4,14.9,22.1,16.1,11.1,88,67,46,30.17,30.06,6,1,7,0.00
2013-3-5,32.2,29.8,27.2,27.5,24.8,21.6,98,82,67,30.09,29.72,13,4,19,0.00
2013-3-6,32.9,29.6,25.1,27.8,25.6,22.5,95,85,76,30.25,29.78,5,1,10,0.29
2013-3-7,37.8,34.2,31.6,29.9,25.1,19.2,89,70,49,30.40,30.23,4,0,5,0.21
2013-3-8,38.2,30.0,18.6,25.1,20.3,15.1,89,69,45,30.51,30.40,4,0,7,0.00
2013-3-9,40.8,33.1,20.2,33.6,26.7,17.4,92,78,63,30.42,29.99,6,1,11,0.01
2013-3-10,59.6,48.1,36.2,41.8,36.2,32.1,86,65,43,29.99,29.76,7,1,16,0.01
2013-3-11,55.1,46.8,35.2,49.6,41.2,30.6,96,82,54,29.76,29.53,12,2,15,0.60
2013-3-12,35.9,33.0,30.4,31.7,26.2,22.4,90,76,61,29.98,29.77,7,2,15,0.00
2013-3-13,31.0,27.6,24.5,27.0,19.1,13.6,87,71,55,30.30,29.96,7,2,11,0.01
2013-3-14,41.6,31.0,22.2,22.0,17.4,13.3,74,58,37,30.33,30.14,4,1,9,0.00
2013-3-15,47.9,38.2,30.4,40.0,32.3,21.3,94,80,59,30.14,29.78,3,0,6,0.13
2013-3-16,40.9,34.9,31.5,39.5,32.0,23.8,96,90,73,30.08,29.64,13,1,13,0.01
2013-3-17,33.5,29.9,27.5,25.1,20.6,17.3,77,68,55,30.23,30.07,13,3,19,0.00
2013-3-18,36.3,31.5,27.3,35.2,28.4,20.0,96,88,73,30.10,29.56,17,4,18,0.08
2013-3-19,35.5,28.5,22.2,26.7,14.7,11.1,76,57,39,30.03,29.73,12,4,17,0.00
2013-3-20,30.6,25.5,19.4,16.0,10.8,6.4,69,54,42,30.03,29.97,7,2,9,0.00
2013-3-21,32.7,24.0,16.1,18.1,13.7,10.3,81,65,42,30.02,29.97,7,1,10,0.00
2013-3-22,41.9,29.8,17.8,18.5,15.3,12.8,84,58,32,30.06,29.99,7,1,7,0.00
2013-3-23,42.1,31.6,20.5,24.3,20.0,14.8,85,64,45,30.10,30.00,6,1,10,0.00
2013-3-24,36.2,31.0,27.5,26.1,23.1,19.4,90,73,54,30.00,29.57,21,4,28,0.00
2013-3-25,36.2,31.6,28.2,30.9,27.4,25.9,93,85,68,29.95,29.52,8,1,11,0.27
2013-3-26,40.8,35.4,31.8,28.7,26.8,23.2,82,71,52,30.19,29.95,7,1,9,0.01
2013-3-27,42.2,36.5,31.9,29.7,25.6,18.8,85,66,46,30.29,30.18,6,1,9,0.00
2013-3-28,50.8,38.4,26.7,28.7,21.8,18.4,72,53,30,30.33,30.26,4,1,7,0.00
2013-3-29,52.6,39.4,24.4,28.8,22.4,18.1,90,56,27,30.32,30.22,4,0,10,0.00
2013-3-30,56.3,41.2,24.5,32.8,25.6,19.4,83,57,33,30.24,29.93,5,0,11,0.00
2013-3-31,60.2,48.3,37.5,44.6,35.6,27.9,90,64,35,29.92,29.67,7,2,13,0.00
2013-4-1,41.1,35.3,26.0,27.9,16.4,7.9,72,47,29,30.15,29.78,7,2,13,0.00
2013-4-2,43.3,30.4,18.8,18.7,12.2,2.8,81,51,20,30.29,30.15,7,1,12,0.00
2013-4-3,46.0,32.9,18.8,19.9,11.4,4.5,76,45,19,30.43,30.29,6,0,10,0.00
2013-4-4,56.6,39.4,22.5,21.5,16.6,11.7,77,43,20,30.35,29.97,7,0,7,0.00
2013-4-5,53.3,43.4,33.4,33.7,21.3,10.4,62,44,18,30.18,29.94,6,1,11,0.00
2013-4-6,59.8,47.3,32.9,35.6,25.8,17.8,68,45,30,30.20,29.76,14,3,15,0.00
2013-4-7,65.6,57.7,47.7,45.4,39.5,34.4,77,52,35,29.97,29.67,9,2,15,0.02
2013-4-8,73.3,54.7,40.3,55.6,43.0,32.5,83,66,44,29.98,29.73,10,2,16,0.04
2013-4-9,80.5,62.7,47.4,58.8,49.4,41.8,82,64,40,30.02,29.82,11,2,17,0.00
2013-4-10,69.9,51.7,44.6,59.2,48.4,43.2,95,89,66,29.91,29.81,11,2,18,0.44
2013-4-11,44.6,41.4,39.2,43.2,40.0,38.1,96,95,94,29.94,29.58,14,5,18,0.66
2013-4-12,43.2,39.9,37.8,40.0,35.3,29.5,97,84,64,29.85,29.55,7,2,14,0.18
2013-4-13,42.1,39.2,36.6,35.2,31.0,25.9,91,73,53,30.01,29.85,9,2,13,0.02
2013-4-14,58.7,46.0,34.6,46.2,38.7,30.0,87,76,60,30.08,29.87,10,3,15,0.00
2013-4-15,66.6,55.8,39.3,53.8,47.5,37.0,93,75,59,29.92,29.83,9,1,12,0.00
2013-4-16,61.3,52.4,47.4,52.9,45.9,35.8,95,79,56,30.21,29.85,4,0,12,0.65
2013-4-17,54.5,50.1,45.4,45.4,40.8,36.9,80,71,63,30.25,29.96,14,4,19,0.05
2013-4-18,76.7,58.4,45.1,64.4,54.1,37.9,96,86,61,29.97,29.55,9,2,16,1.69
2013-4-19,58.7,41.7,36.5,57.8,35.5,27.6,97,79,61,29.86,29.45,13,4,20,0.70
2013-4-20,45.4,37.4,29.4,29.6,22.8,13.2,88,58,31,30.45,29.86,8,2,14,0.03
2013-4-21,49.8,37.4,23.0,32.1,24.6,17.1,85,62,41,30.59,30.43,15,2,15,0.00
2013-4-22,65.3,48.2,30.0,37.2,31.1,26.1,88,57,27,30.43,30.13,7,1,12,0.00
2013-4-23,69.6,54.5,40.1,55.1,44.8,35.1,96,72,41,30.13,29.76,7,1,14,0.64
2013-4-24,56.5,40.8,33.1,55.0,35.3,21.5,97,83,44,30.20,29.73,9,2,12,0.46
2013-4-25,52.5,42.2,33.2,36.2,30.8,27.5,86,66,39,30.37,30.15,7,1,13,0.00
2013-4-26,61.5,46.5,28.7,37.5,32.2,26.5,94,62,35,30.45,30.33,5,1,9,0.00
2013-4-27,68.9,54.2,34.6,45.0,36.5,31.2,95,57,27,30.34,30.04,6,1,12,0.00
2013-4-28,59.3,56.0,51.4,57.5,52.7,45.1,96,90,61,30.03,29.80,5,1,6,0.40
2013-4-29,69.6,60.3,53.5,57.2,53.5,50.7,96,80,55,29.94,29.84,3,0,7,0.04
2013-4-30,76.8,65.2,51.4,60.7,54.2,48.5,92,69,52,30.01,29.90,8,1,12,0.00
2013-5-1,83.0,68.5,49.5,57.9,53.0,47.3,95,62,34,30.16,30.01,8,1,10,0.00
2013-5-2,77.6,67.3,55.3,56.4,53.3,50.1,92,63,40,30.18,30.07,8,1,13,0.00
2013-5-3,77.2,68.4,58.6,57.6,51.3,41.7,84,57,31,30.07,29.94,9,1,16,0.00
2013-5-4,71.6,64.5,56.9,48.4,42.3,34.8,64,46,27,30.01,29.95,12,2,17,0.00
2013-5-5,70.9,61.1,49.6,48.5,43.7,38.6,77,54,36,30.01,29.95,11,1,13,0.00
2013-5-6,73.3,63.8,52.2,53.5,46.3,39.6,70,54,43,30.00,29.92,7,1,12,0.00
2013-5-7,73.5,63.9,51.4,55.3,49.8,45.6,82,61,46,30.01,29.94,6,1,10,0.00
2013-5-8,78.3,65.7,51.9,53.5,50.0,45.4,91,61,33,29.99,29.93,3,0,6,0.00
2013-5-9,80.7,66.6,53.2,58.0,51.3,42.3,91,62,28,29.97,29.88,4,0,7,0.05
2013-5-10,69.6,62.2,48.2,59.5,55.7,43.5,93,81,62,29.89,29.75,6,1,8,0.14
2013-5-11,55.4,48.2,41.6,48.3,41.9,31.7,90,79,60,29.98,29.81,7,1,18,0.02
2013-5-12,50.5,43.3,37.0,33.3,29.0,24.5,83,59,38,30.12,29.97,12,2,12,0.00
2013-5-13,59.3,46.7,33.4,36.2,27.4,17.9,91,53,21,30.18,30.09,5,0,7,0.00
2013-5-14,83.8,66.1,44.6,58.4,43.7,28.3,63,45,30,30.10,29.70,6,1,11,0.00
2013-5-15,85.5,76.1,66.0,58.5,52.7,46.8,75,46,27,29.79,29.64,6,2,11,0.00
2013-5-16,83.2,69.4,53.1,57.0,46.3,34.1,88,50,18,29.94,29.77,2,0,5,0.00
2013-5-17,82.4,65.9,52.0,52.1,45.4,38.8,77,49,31,30.07,29.95,11,1,14,0.00
2013-5-18,79.4,66.7,52.8,57.9,49.1,38.2,69,54,43,30.09,29.97,6,1,7,0.00
2013-5-19,87.0,72.1,55.3,63.3,55.2,45.7,77,57,38,29.99,29.83,5,0,6,0.00
2013-5-20,88.0,77.6,68.9,69.3,64.6,60.9,88,66,44,29.89,29.78,7,1,14,0.00
2013-5-21,87.2,77.0,67.9,66.2,60.5,55.3,82,59,34,29.80,29.69,7,1,12,0.00
2013-5-22,77.2,70.8,64.7,65.5,60.7,56.9,89,71,51,29.73,29.63,9,1,13,0.06
2013-5-23,64.5,58.5,50.1,59.5,53.1,43.9,92,82,73,30.14,29.71,10,1,10,0.10
2013-5-24,64.0,52.6,41.5,44.9,37.7,32.7,83,60,32,30.33,30.15,5,1,10,0.00
2013-5-25,68.3,55.7,40.6,43.7,39.3,36.4,93,59,32,30.36,30.22,4,0,6,0.00
2013-5-26,72.7,59.2,42.5,40.0,35.3,28.9,79,44,25,30.31,30.17,6,1,9,0.00
2013-5-27,61.5,55.4,49.8,56.0,47.7,30.5,96,79,31,30.20,29.92,9,2,14,1.02
2013-5-28,80.9,70.2,57.3,67.9,63.5,56.1,97,81,56,29.93,29.81,8,1,13,0.33
2013-5-29,85.7,76.8,69.8,65.4,62.0,59.0,77,61,43,29.97,29.84,5,1,10,0.00
2013-5-30,86.7,76.2,68.1,67.7,64.0,59.3,92,68,48,30.03,29.90,9,1,18,0.08
2013-5-31,76.3,72.0,62.9,69.9,66.0,60.5,94,82,68,29.96,29.83,5,0,11,1.41
2013-6-1,75.3,68.9,62.9,67.4,63.2,60.5,97,83,62,29.90,29.70,7,1,10,2.28
2013-6-2,69.8,63.6,50.8,62.4,56.3,43.8,87,77,65,29.99,29.69,5,1,9,0.00
2013-6-3,68.8,58.1,49.4,46.7,42.0,36.8,82,58,33,30.08,29.98,4,1,10,0.00
2013-6-4,73.7,61.7,45.7,50.0,45.7,42.6,92,59,34,30.16,30.08,6,1,11,0.00
2013-6-5,76.5,65.3,53.5,55.2,47.1,35.0,73,53,33,30.12,29.91,7,2,13,0.00
2013-6-6,74.6,63.8,57.0,56.1,50.0,44.6,82,62,47,29.93,29.79,5,1,10,0.00
2013-6-7,71.3,62.5,54.7,55.8,52.7,49.7,91,72,53,29.89,29.83,5,1,10,0.00
2013-6-8,78.3,64.5,48.0,54.8,50.5,46.2,96,64,37,30.00,29.89,5,0,5,0.00
2013-6-9,83.6,71.7,61.3,65.1,57.7,51.0,91,64,35,30.04,29.85,6,1,10,0.03
2013-6-10,79.8,70.1,64.7,66.9,63.5,58.8,96,81,50,29.85,29.70,6,1,9,0.35
2013-6-11,84.9,72.4,63.5,66.5,62.1,58.1,92,72,46,29.91,29.79,4,1,6,0.00
2013-6-12,88.8,75.9,65.2,73.5,67.5,62.1,94,77,54,29.88,29.58,12,0,14,0.99
2013-6-13,78.3,69.1,62.6,65.2,57.5,48.5,96,70,36,29.92,29.48,9,2,14,0.19
2013-6-14,78.6,67.9,58.0,58.7,55.3,51.2,91,67,41,30.06,29.92,5,0,7,0.00
2013-6-15,79.9,67.2,57.5,66.0,59.6,54.8,92,78,47,30.08,29.91,2,0,6,0.03
2013-6-16,80.7,72.1,64.0,67.0,64.6,60.5,93,78,58,29.91,29.84,6,1,11,0.09
2013-6-17,85.5,75.6,67.8,68.5,61.8,52.2,94,67,33,29.91,29.84,6,0,6,0.00
2013-6-18,78.1,69.9,63.2,63.4,58.8,52.3,84,69,49,30.02,29.83,6,1,9,0.00
2013-6-19,78.3,66.3,52.2,53.7,49.3,44.0,80,57,31,30.13,30.02,6,0,7,0.00
2013-6-20,84.0,71.0,53.3,62.6,56.2,49.7,91,62,44,30.17,30.10,3,0,5,0.00
2013-6-21,87.8,76.4,63.4,62.4,58.4,52.2,88,58,31,30.16,29.99,3,0,7,0.00
2013-6-22,90.7,79.1,70.4,71.5,65.7,59.1,78,64,50,30.07,29.97,5,0,7,0.00
2013-6-23,89.9,77.1,68.1,69.5,65.5,61.4,92,70,40,30.07,29.96,5,0,13,0.00
2013-6-24,87.2,76.6,66.8,69.3,66.4,62.8,94,73,48,30.06,29.91,5,0,15,0.20
2013-6-25,89.9,78.0,67.6,72.7,67.8,63.8,94,73,46,29.97,29.79,10,1,12,0.23
2013-6-26,85.9,72.7,67.1,73.0,68.1,64.9,96,87,58,29.90,29.70,4,0,6,0.16
2013-6-27,85.1,75.2,68.3,70.0,67.8,65.0,96,80,54,29.74,29.63,6,1,10,0.47
2013-6-28,81.8,72.6,66.3,67.7,63.0,53.9,96,74,42,29.64,29.53,11,1,16,0.25
2013-6-29,75.8,68.3,62.0,65.5,62.1,60.0,95,81,61,29.67,29.53,4,0,9,0.02
2013-6-30,75.4,66.7,61.3,63.6,61.5,58.8,95,84,64,29.89,29.67,6,1,11,0.38
2013-7-1,69.6,65.0,61.2,64.3,58.1,53.9,93,79,70,30.00,29.88,6,1,17,0.17
2013-7-2,72.8,65.0,59.8,66.4,61.4,55.0,96,88,75,30.02,29.96,5,1,10,0.38
2013-7-3,80.3,67.9,64.3,68.0,64.5,62.8,97,90,57,30.06,29.98,4,1,7,0.04
2013-7-4,79.9,72.2,63.5,67.3,62.9,57.9,95,74,53,30.12,30.05,2,0,4,0.00
2013-7-5,77.6,70.6,66.9,68.3,66.4,65.0,95,87,66,30.09,30.03,0,0,3,0.00
2013-7-6,78.8,72.2,67.8,70.9,67.9,65.9,95,87,68,30.09,29.98,2,0,5,0.31
2013-7-7,80.9,72.5,66.3,70.2,67.5,64.5,95,85,65,30.06,29.98,3,0,6,0.03
2013-7-8,82.8,74.6,66.9,73.8,69.8,62.8,96,86,66,30.05,29.95,4,0,22,1.01
2013-7-9,87.4,80.2,74.9,74.8,72.6,70.0,89,78,57,30.00,29.89,6,1,10,0.01
2013-7-10,85.1,77.2,63.7,76.0,69.0,56.4,94,76,58,29.96,29.78,7,1,13,0.15
2013-7-11,79.6,69.8,60.9,59.6,56.1,52.0,85,64,39,30.05,29.95,6,1,10,0.00
2013-7-12,79.6,69.5,57.8,62.4,58.1,54.8,94,69,46,30.12,30.03,6,0,11,0.00
2013-7-13,83.2,72.7,60.2,67.3,62.8,57.3,94,73,51,30.15,30.09,7,1,10,0.00
2013-7-14,88.0,77.3,65.8,72.3,68.3,63.7,95,76,54,30.20,30.15,6,1,10,0.00
2013-7-15,92.1,81.5,71.1,73.1,70.6,68.7,95,72,50,30.26,30.19,4,0,5,0.00
2013-7-16,91.8,82.6,72.1,72.6,70.1,67.3,92,68,45,30.30,30.23,4,0,4,0.00
2013-7-17,92.3,87.9,79.0,72.3,69.8,67.2,79,56,45,30.29,30.15,4,1,6,0.00
2013-7-18,93.6,83.9,74.2,74.1,71.5,69.1,89,68,46,30.16,29.97,4,0,7,0.00
2013-7-19,92.5,84.6,76.8,73.0,71.7,69.8,83,67,49,29.97,29.77,5,1,10,0.00
2013-7-20,87.2,79.8,73.0,73.8,69.2,62.1,95,72,44,29.88,29.73,7,0,10,0.21
2013-7-21,87.2,77.0,66.0,69.2,65.3,62.3,90,69,44,29.95,29.86,5,1,7,0.00
2013-7-22,80.7,72.5,65.6,69.4,66.2,63.5,95,81,60,29.89,29.75,6,1,7,0.30
2013-7-23,84.7,73.6,62.4,68.5,63.4,52.9,94,73,47,29.85,29.68,7,1,13,0.00
2013-7-24,73.9,64.0,53.5,55.3,51.2,48.4,84,65,45,30.02,29.85,10,1,10,0.00
2013-7-25,77.9,66.1,52.8,57.1,53.3,49.9,95,67,39,30.10,30.02,2,0,5,0.00
2013-7-26,79.9,69.1,55.7,60.8,56.4,53.7,94,67,46,30.08,29.90,3,0,6,0.00
2013-7-27,78.3,68.2,57.0,65.5,59.0,50.3,90,74,42,29.90,29.76,6,1,12,0.03
2013-7-28,68.3,60.1,51.9,50.7,49.1,47.0,91,69,47,30.00,29.86,6,1,9,0.00
2013-7-29,73.3,62.2,52.2,55.6,52.1,48.5,90,71,50,30.17,30.00,4,0,11,0.00
2013-7-30,79.2,67.6,53.2,60.5,56.1,51.5,96,70,45,30.21,30.09,3,0,5,0.00
2013-7-31,73.2,68.9,65.3,67.2,64.1,60.3,93,85,77,30.08,29.90,3,0,5,0.00
2013-8-1,79.8,70.5,61.6,67.3,58.9,50.3,93,70,36,29.95,29.90,5,1,10,0.08
2013-8-2,79.0,63.2,55.0,68.8,59.9,52.5,96,89,67,29.99,29.84,6,0,13,2.90
2013-8-3,79.8,69.6,62.3,66.7,59.8,50.5,97,75,43,30.04,29.91,4,0,5,0.05
2013-8-4,76.5,66.0,54.8,55.9,53.0,49.1,91,65,41,30.16,30.03,4,0,7,0.00
2013-8-5,77.4,66.0,54.2,61.2,56.5,52.2,95,73,48,30.10,29.93,3,0,5,0.00
2013-8-6,79.0,71.3,64.2,68.3,63.7,58.0,89,78,64,29.94,29.87,4,0,6,0.01
2013-8-7,84.3,76.6,70.3,72.0,69.7,66.9,93,80,63,29.88,29.81,3,0,5,0.00
2013-8-8,74.0,71.7,69.3,69.5,66.6,64.5,91,84,78,29.96,29.86,5,1,9,0.00
2013-8-9,82.2,73.1,66.1,66.5,61.6,55.2,90,69,45,30.00,29.91,3,0,5,0.00
2013-8-10,81.1,72.1,64.5,68.5,65.0,62.1,94,79,61,30.08,30.00,3,0,7,0.00
2013-8-11,81.8,71.0,60.1,62.9,59.9,56.0,96,71,43,30.10,30.03,5,0,5,0.00
2013-8-12,85.1,73.9,61.8,66.7,63.3,59.4,94,71,48,30.05,29.82,4,0,11,0.00
2013-8-13,70.3,65.3,57.5,65.0,54.8,45.0,93,71,42,30.06,29.83,7,1,9,0.00
2013-8-14,71.8,59.8,48.5,50.8,48.3,45.5,91,68,41,30.17,30.07,5,0,9,0.00
2013-8-15,76.0,61.9,48.5,55.1,50.1,46.3,95,69,39,30.17,30.09,3,0,5,0.00
2013-8-16,78.3,66.1,55.9,57.8,54.4,50.0,93,69,38,30.17,30.10,6,0,7,0.00
2013-8-17,79.0,66.6,54.2,59.9,55.3,51.8,96,71,40,30.23,30.15,6,1,9,0.00
2013-8-18,82.2,69.5,57.0,64.5,57.8,53.8,95,69,40,30.18,30.09,5,0,7,0.00
2013-8-19,85.3,71.3,57.6,62.1,58.4,54.1,95,68,36,30.12,30.03,4,0,6,0.00
2013-8-20,87.2,74.0,60.1,66.1,61.8,57.2,96,69,37,30.14,30.05,2,0,5,0.00
2013-8-21,86.5,74.2,64.7,69.4,65.0,60.9,89,75,46,30.14,29.98,2,0,4,0.00
2013-8-22,79.0,72.3,68.8,70.1,67.4,66.0,94,85,71,30.05,29.97,7,1,12,0.03
2013-8-23,83.4,73.1,62.4,66.2,59.1,50.3,93,66,35,30.15,30.03,7,1,9,0.00
2013-8-24,83.4,69.0,54.1,60.7,53.8,49.5,94,64,32,30.28,30.15,7,1,10,0.00
2013-8-25,87.6,72.9,56.5,64.0,58.9,54.2,94,66,37,30.28,30.17,4,0,7,0.00
2013-8-26,89.0,76.7,63.4,69.2,64.4,58.9,86,67,44,30.19,30.00,5,1,9,0.00
2013-8-27,90.3,80.4,73.2,73.5,70.1,67.8,86,72,52,29.99,29.86,3,0,5,0.00
2013-8-28,87.2,80.7,74.7,73.5,69.4,66.6,85,69,55,29.97,29.80,5,1,7,0.00
2013-8-29,88.4,77.0,66.3,70.1,66.9,63.4,95,73,46,30.03,29.96,5,0,7,0.00
2013-8-30,89.7,77.9,64.5,70.0,66.5,62.9,96,71,44,29.97,29.72,4,0,5,0.00
2013-8-31,85.9,78.1,72.1,72.4,70.2,67.3,93,78,58,29.82,29.72,4,0,7,0.01
2013-9-1,78.8,73.0,66.6,69.5,67.9,64.1,94,84,73,29.78,29.72,1,0,4,0.00
2013-9-2,81.6,72.5,60.5,69.0,61.5,53.1,95,72,38,29.92,29.73,6,1,9,0.00
2013-9-3,76.8,66.0,56.9,55.4,51.8,48.2,81,62,41,30.03,29.92,6,1,6,0.00
2013-9-4,81.6,67.0,52.3,58.3,54.1,50.4,95,68,35,30.10,30.02,5,1,7,0.00
2013-9-5,79.8,67.3,58.0,58.2,47.1,30.8,91,55,19,30.22,30.08,5,1,7,0.00
2013-9-6,79.9,64.2,48.2,52.1,47.4,43.3,92,59,29,30.26,30.06,5,0,6,0.00
2013-9-7,87.2,72.9,57.8,64.2,57.1,51.4,82,60,35,30.06,29.89,5,0,7,0.00
2013-9-8,76.5,69.8,63.5,66.3,63.0,58.0,94,80,64,30.03,29.91,6,1,12,0.00
2013-9-9,91.2,73.8,60.4,69.9,61.6,52.1,86,68,44,30.02,29.86,5,0,7,0.00
2013-9-10,97.1,84.9,75.4,71.7,65.8,57.2,86,58,27,30.02,29.90,5,1,7,0.00
2013-9-11,95.1,82.5,73.7,69.6,66.1,58.3,82,61,30,30.05,29.91,5,0,9,0.00
2013-9-12,83.0,71.3,60.7,68.9,62.5,48.8,96,78,32,29.96,29.81,9,0,9,0.48
2013-9-13,63.2,56.3,48.2,55.6,44.9,40.7,85,67,45,30.12,29.96,6,1,9,0.00
2013-9-14,69.4,54.0,38.9,44.8,38.3,30.9,95,62,25,30.20,30.09,4,0,5,0.00
2013-9-15,70.9,56.4,44.2,55.6,47.6,41.7,95,76,40,30.12,30.00,3,0,9,0.20
2013-9-16,66.8,58.5,50.4,54.8,51.2,45.1,96,78,47,30.32,30.10,5,0,6,0.00
2013-9-17,70.1,56.5,43.6,50.4,45.1,41.4,94,69,36,30.36,30.17,5,1,10,0.00
2013-9-18,80.9,64.1,53.2,56.2,50.5,44.7,88,66,30,30.17,30.00,2,0,4,0.00
2013-9-19,76.3,68.3,65.2,68.3,65.0,52.7,96,90,64,30.02,29.88,3,0,4,0.55
2013-9-20,79.2,72.1,66.6,69.6,67.7,64.8,95,87,67,29.89,29.74,3,0,7,0.28
2013-9-21,69.8,61.8,51.4,65.6,52.0,43.6,95,72,43,29.88,29.71,5,1,10,0.00
2013-9-22,64.7,55.5,45.5,49.1,44.0,39.3,92,68,43,30.05,29.88,4,0,7,0.00
2013-9-23,65.0,52.7,41.5,47.9,43.5,39.3,93,73,46,30.14,30.05,6,1,10,0.00
2013-9-24,67.9,54.8,41.5,47.8,43.9,39.4,94,70,40,30.11,29.95,5,1,11,0.00
2013-9-25,70.4,58.5,47.7,53.2,49.3,46.0,95,74,44,29.96,29.89,7,0,9,0.00
2013-9-26,76.8,61.3,47.6,57.7,46.6,39.2,96,65,26,30.10,29.94,6,1,9,0.00
2013-9-27,77.4,61.2,45.5,58.0,48.5,40.3,96,67,33,30.19,30.10,6,1,11,0.00
2013-9-28,81.2,64.4,48.6,55.6,50.8,46.7,96,67,30,30.16,29.98,2,0,5,0.00
2013-9-29,64.8,61.5,54.4,61.4,57.2,52.5,95,86,66,29.99,29.95,2,0,5,0.08
2013-9-30,71.8,59.3,51.9,61.6,53.8,50.5,97,84,52,30.01,29.92,2,0,7,0.01
2013-10-1,73.3,63.2,54.8,62.2,58.8,52.8,97,87,62,30.03,29.95,3,0,7,0.00
2013-10-2,80.9,70.1,62.3,65.7,62.8,59.6,95,79,54,30.07,29.97,2,0,5,0.00
2013-10-3,79.2,69.9,61.8,68.9,63.8,60.2,96,82,59,30.01,29.90,3,0,7,0.02
2013-10-4,84.0,71.5,66.1,68.6,65.5,62.7,94,82,52,30.00,29.93,4,0,5,0.28
2013-10-5,78.1,69.1,61.5,71.2,65.8,60.3,97,90,73,29.99,29.83,4,0,6,0.26
2013-10-6,69.4,61.3,49.9,67.2,58.8,40.4,96,92,68,29.84,29.68,6,1,9,0.50
2013-10-7,58.7,50.4,43.9,46.4,42.5,39.6,92,75,56,30.13,29.77,8,1,10,0.00
2013-10-8,70.1,53.6,39.9,53.4,43.5,38.5,96,73,40,30.26,30.14,4,0,6,0.00
2013-10-9,70.3,54.5,40.8,49.4,42.6,36.1,96,69,29,30.27,30.17,4,0,9,0.00
2013-10-10,70.8,55.1,41.2,50.7,43.2,36.5,96,69,29,30.19,30.09,3,0,5,0.00
2013-10-11,74.6,57.8,42.9,53.7,46.4,41.2,96,71,33,30.13,30.02,4,0,6,0.00
2013-10-12,78.6,62.8,47.0,56.8,51.2,45.9,96,70,35,30.08,29.99,2,0,6,0.00
2013-10-13,68.3,60.5,48.0,59.7,45.6,36.6,91,61,32,30.34,30.07,4,0,6,0.00
2013-10-14,64.3,52.9,41.5,49.8,43.1,39.0,93,72,45,30.38,30.22,5,1,10,0.00
2013-10-15,65.2,55.1,44.5,61.1,51.5,41.5,93,88,81,30.22,29.85,3,0,6,0.04
2013-10-16,63.2,55.5,48.8,60.8,47.3,41.9,92,75,56,29.95,29.82,6,1,9,0.00
2013-10-17,51.0,47.6,43.2,48.8,43.9,40.5,95,87,78,29.93,29.81,4,0,7,0.13
2013-10-18,63.5,49.6,40.6,46.4,40.9,37.9,92,75,40,29.95,29.86,4,1,7,0.01
2013-10-19,52.2,44.3,40.3,41.9,37.6,32.3,94,79,48,29.94,29.81,4,0,7,0.25
2013-10-20,61.5,50.9,40.5,41.6,37.8,34.1,82,62,42,29.93,29.85,4,0,9,0.00
2013-10-21,56.2,50.0,39.3,46.9,41.3,29.4,90,72,57,29.93,29.85,6,0,10,0.03
2013-10-22,48.9,38.4,32.1,34.2,27.3,18.3,92,67,31,30.00,29.90,4,0,7,0.06
2013-10-23,43.6,37.9,32.1,37.0,32.6,26.3,96,82,55,30.00,29.82,6,0,10,0.01
2013-10-24,43.1,37.8,33.2,32.1,30.2,27.9,83,74,58,30.23,29.98,7,1,9,0.00
2013-10-25,48.6,39.0,31.2,32.7,27.0,22.8,83,64,36,30.39,30.17,7,0,7,0.00
2013-10-26,52.8,43.7,37.0,36.8,30.2,24.6,86,59,51,30.17,29.84,7,1,12,0.00
2013-10-27,54.2,41.5,30.0,37.2,30.7,26.8,94,70,35,30.08,30.01,5,0,6,0.00
2013-10-28,56.9,42.1,29.1,37.9,32.6,26.8,93,72,44,30.34,30.06,4,0,6,0.00
2013-10-29,54.4,43.6,32.9,40.5,36.2,29.4,88,76,57,30.40,30.21,5,0,7,0.00
2013-10-30,63.1,51.3,37.9,59.4,46.5,35.6,95,84,71,30.21,29.91,5,0,7,0.20
2013-10-31,62.7,60.4,56.3,61.5,59.0,55.1,96,96,95,29.90,29.21,6,1,11,1.27
2013-11-1,56.2,49.0,46.0,55.0,42.9,39.6,96,80,69,29.69,29.25,9,2,13,0.03
2013-11-2,49.6,45.7,38.0,43.4,40.4,33.8,92,82,65,30.07,29.68,5,1,7,0.02
2013-11-3,47.9,41.9,36.9,39.8,35.7,33.6,91,79,62,30.38,30.08,6,1,7,0.00
2013-11-4,51.7,43.8,33.7,39.9,34.6,29.5,92,72,47,30.40,30.27,5,1,9,0.00
2013-11-5,51.7,46.6,43.2,47.6,41.1,38.6,86,81,75,30.35,30.28,2,0,2,0.01
2013-11-9,59.5,54.5,47.4,39.2,37.1,31.5,62,52,45,29.98,29.87,12,3,15,0.00
2013-11-10,48.6,41.2,29.8,36.3,29.0,25.0,89,63,49,30.32,29.98,10,2,10,0.00
2013-11-11,48.5,39.1,28.1,38.5,31.4,20.5,92,75,54,30.34,30.04,5,1,9,0.09
2013-11-12,34.6,28.1,21.8,22.5,19.2,16.3,83,69,55,30.62,30.35,5,0,10,0.01
2013-11-13,38.3,29.2,20.5,18.8,16.5,12.6,82,61,38,30.59,30.27,5,1,12,0.01
2013-11-14,52.8,39.7,29.7,21.9,19.2,15.4,66,46,25,30.27,30.04,9,1,12,0.00
2013-11-15,50.2,43.9,38.3,30.6,25.0,19.3,73,48,39,30.07,30.01,5,0,9,0.00
2013-11-16,57.5,48.9,38.3,54.2,44.5,31.0,91,85,74,30.06,29.77,6,1,13,0.03
2013-11-17,64.7,57.8,47.6,60.0,52.8,37.5,95,84,62,29.77,29.30,13,3,18,0.77
2013-11-18,47.4,40.4,35.5,37.4,31.0,25.2,86,69,57,30.18,29.65,9,2,14,0.00
2013-11-19,40.5,34.9,26.7,26.8,23.9,22.3,87,65,49,30.37,30.18,11,0,11,0.00
2013-11-20,43.9,34.4,24.5,32.2,26.8,21.1,88,74,57,30.39,30.19,7,1,12,0.00
2013-11-21,48.0,44.3,41.3,46.9,40.3,32.0,96,86,66,30.27,30.15,3,0,7,0.47
2013-11-22,48.3,41.6,28.4,47.2,37.2,23.3,96,85,67,30.40,30.13,6,1,11,0.06
2013-11-23,31.8,25.5,16.5,24.8,17.2,4.4,88,71,50,30.59,30.35,10,2,15,0.00
2013-11-24,26.0,19.3,13.6,14.9,11.1,8.0,84,70,54,30.69,30.50,4,0,6,0.00
2013-11-25,31.6,25.9,18.4,23.8,14.1,8.7,79,61,48,30.49,30.15,9,1,11,0.00
2013-11-26,36.5,31.6,27.9,27.0,24.0,20.7,84,74,62,30.15,29.96,5,0,7,0.00
2013-11-27,29.7,25.9,23.2,21.6,16.2,10.4,82,67,46,30.25,29.97,6,1,12,0.00
2013-11-28,30.4,26.3,22.7,19.1,14.7,11.4,78,62,49,30.44,30.25,5,0,7,0.00
2013-11-29,35.8,28.4,20.2,21.8,18.3,13.6,85,67,49,30.65,30.45,4,0,6,0.00
2013-11-30,49.5,35.3,26.4,28.7,23.8,19.1,76,64,44,30.53,30.12,4,0,7,0.00
2013-12-1,46.8,39.1,31.8,33.7,28.9,24.8,81,67,55,30.11,29.97,2,0,4,0.00
2013-12-2,38.3,32.8,26.9,31.2,28.7,24.3,92,85,74,29.99,29.85,6,1,10,0.00
2013-12-3,48.2,40.4,33.5,44.5,38.0,31.1,95,91,86,29.86,29.77,6,1,12,0.06
2013-12-4,58.9,50.4,39.9,55.1,48.2,38.3,96,92,86,29.84,29.62,5,1,9,0.02
2013-12-5,59.3,39.2,28.5,55.1,31.9,19.6,87,75,65,30.19,29.62,7,2,11,0.00
2013-12-6,29.5,27.7,24.1,21.1,18.4,13.3,73,68,63,30.43,30.14,3,0,5,0.00
2013-12-7,26.7,21.7,14.8,14.3,11.2,8.3,80,64,49,30.64,30.43,6,0,6,0.00
2013-12-8,26.7,21.9,16.1,24.9,15.3,9.5,93,76,60,30.58,29.99,13,3,21,0.00
2013-12-9,28.8,24.3,17.8,27.0,17.9,7.3,94,77,63,30.20,29.92,9,2,13,0.00
2013-12-10,25.4,17.7,7.9,10.3,5.5,0.0,69,59,45,30.29,30.05,12,2,18,0.00
2013-12-11,24.4,17.4,5.2,17.3,9.8,0.0,84,72,54,30.51,30.30,5,1,7,0.00
2013-12-12,23.6,11.6,0.0,7.3,0.2,-8.0,82,60,41,30.54,30.28,6,1,11,0.00
2013-12-13,29.7,23.1,15.4,22.9,12.6,3.4,88,64,54,30.29,30.17,5,1,9,0.00
2013-12-14,26.0,24.3,20.3,23.8,22.0,16.5,92,91,85,30.19,29.81,9,2,14,0.00
2013-12-15,24.2,17.5,10.7,21.4,12.3,4.9,89,80,73,30.12,29.89,10,2,11,0.00
2013-12-16,18.9,15.3,9.7,15.3,10.1,5.1,89,80,71,30.20,30.02,5,1,6,0.00
2013-12-17,27.5,22.5,18.1,23.8,19.1,15.4,91,87,79,30.08,29.97,6,1,12,0.00
2013-12-18,35.2,23.3,17.5,20.0,14.8,11.9,85,70,52,30.22,29.93,5,1,11,0.00
2013-12-19,44.6,38.5,33.2,36.0,30.0,19.8,85,72,53,29.98,29.86,5,0,11,0.54
2013-12-20,55.0,46.9,40.8,54.1,45.4,36.1,97,95,83,29.86,29.70,4,0,7,0.20
2013-12-21,53.9,38.0,33.5,52.7,36.5,32.2,96,94,89,29.81,29.53,13,1,24,1.23
2013-12-22,38.8,35.7,32.8,38.0,33.3,29.9,97,91,84,30.01,29.48,6,2,20,0.14
2013-12-23,32.8,26.1,14.3,30.1,20.0,5.1,92,78,62,30.40,30.02,7,2,11,0.00
2013-12-24,19.7,11.4,4.5,9.6,4.2,-2.0,84,72,63,30.58,30.39,5,1,9,0.00
2013-12-25,26.3,22.3,13.1,22.6,16.2,8.9,86,77,70,30.51,30.14,5,1,10,0.00
2013-12-26,32.5,27.0,21.1,26.1,19.4,12.2,91,73,54,30.31,30.09,6,1,9,0.00
2013-12-27,43.5,36.1,30.0,30.6,27.2,22.7,80,70,59,30.34,30.15,4,1,10,0.02
2013-12-28,49.4,41.1,36.3,33.9,31.2,28.7,77,68,54,30.15,29.92,5,1,11,0.00
2013-12-29,44.3,36.1,25.4,31.9,27.2,18.9,88,71,61,30.04,29.72,5,1,12,0.00
2013-12-30,25.4,21.6,18.1,18.6,11.7,7.7,81,65,50,30.27,30.05,9,1,10,0.00
2013-12-31,18.1,16.0,11.9,13.5,9.1,4.8,83,74,62,30.37,30.14,5,1,12,0.00
2014-1-1,19.4,17.1,14.0,14.8,12.8,9.9,85,83,79,30.34,30.15,10,2,15,0.00
2014-1-2,15.6,13.1,4.3,12.1,8.2,-3.0,86,81,67,30.35,30.04,15,2,16,0.00